FW2442 Weather Reports


Display with metric or nautical units.
time (UTC)temp
F
wind
direction
speed
MPH
gust
MPH
rain 1hr
in
rain 24hr
in
rain mn
in
humidity
%
barometer
mb
20260508084525 66 113 2.0 4.0 0.00 0.00 0.00 72 1015.9
20260508083526 66 124 2.0 3.0 0.00 0.00 0.00 73 1015.9
20260508082525 64 171 0.0 2.0 0.00 0.00 0.00 76 1016.0
20260508081526 63 162 1.0 3.0 0.00 0.00 0.00 77 1016.1
20260508080525 62 132 1.0 3.0 0.00 0.00 0.00 80 1015.9
20260508075526 60 116 1.0 3.0 0.00 0.00 0.00 82 1016.1
20260508074546 59 120 0.0 2.0 0.00 0.00 0.00 82 1016.1
20260508073525 59 138 1.0 2.0 0.00 0.00 0.00 83 1016.2
20260508072526 59 133 1.0 2.0 0.00 0.00 0.00 82 1016.2
20260508071517 59 121 1.0 2.0 0.00 0.00 0.00 83 1016.2
20260508070516 58 124 2.0 7.0 0.00 0.00 0.00 84 1016.1
20260508065516 57 118 2.0 3.0 0.00 0.00 0.00 84 1016.2
20260508064516 57 110 1.0 2.0 0.00 0.00 0.00 85 1016.1
20260508063536 56 134 1.0 2.0 0.00 0.00 0.00 87 1016.2
20260508062536 55 119 1.0 2.0 0.00 0.00 0.00 88 1016.1
20260508061536 55 119 1.0 2.0 0.00 0.00 0.00 87 1016.0
20260508060516 55 125 1.0 2.0 0.00 0.00 0.00 87 1016.0
20260508055515 54 121 1.0 2.0 0.00 0.00 0.00 88 1015.9
20260508054516 54 143 1.0 2.0 0.00 0.00 0.00 90 1015.9
20260508053536 53 120 1.0 2.0 0.00 0.00 0.00 90 1015.8
20260508052535 53 117 1.0 2.0 0.00 0.00 0.00 91 1015.8
20260508051557 52 117 1.0 2.0 0.00 0.00 0.00 90 1015.8
20260508050516 53 114 2.0 2.0 0.00 0.00 0.00 89 1015.9
20260508045536 52 127 1.0 2.0 0.00 0.00 0.00 89 1015.9
20260508044516 52 122 1.0 2.0 0.00 0.00 0.00 90 1016.0
20260508043536 51 117 1.0 2.0 0.00 0.00 0.00 90 1016.1
20260508042517 51 120 1.0 2.0 0.00 0.00 0.00 91 1016.0
20260508041535 51 113 2.0 2.0 0.00 0.00 0.00 91 1015.9
20260508040516 51 124 2.0 2.0 0.00 0.00 0.00 91 1015.9
20260508035516 51 107 2.0 2.0 0.00 0.00 0.00 91 1015.8
20260508034517 50 108 1.0 2.0 0.00 0.00 0.00 91 1015.8
20260508033536 50 115 2.0 2.0 0.00 0.00 0.00 91 1015.7
20260508032536 50 107 1.0 2.0 0.00 0.00 0.00 91 1015.8
20260508031516 50 0.0 0.0 0.00 0.00 0.00 91 1015.7
20260508030538 50 0.0 0.0 0.00 0.00 0.00 91 1015.5
20260508025517 50 117 1.0 1.0 0.00 0.00 0.00 91 1015.4
20260508024517 50 117 1.0 2.0 0.00 0.00 0.00 90 1015.3
20260508023515 50 108 1.0 2.0 0.00 0.00 0.00 90 1015.3
20260508022516 51 120 1.0 2.0 0.00 0.00 0.00 90 1015.2
20260508021517 51 113 2.0 2.0 0.00 0.00 0.00 89 1015.2
20260508020521 51 113 1.0 2.0 0.00 0.00 0.00 89 1015.2
20260508015517 51 131 1.0 2.0 0.00 0.00 0.00 88 1014.9
20260508014536 51 114 1.0 2.0 0.00 0.00 0.00 88 1015.1
20260508013517 51 139 1.0 2.0 0.00 0.00 0.00 87 1015.1
20260508012517 52 124 1.0 2.0 0.00 0.00 0.00 87 1015.0
20260508011517 52 108 1.0 2.0 0.00 0.00 0.00 87 1015.1
20260508010516 52 119 1.0 2.0 0.00 0.00 0.00 87 1015.0
20260508005517 52 121 1.0 2.0 0.00 0.00 0.00 86 1015.0
20260508004556 52 119 1.0 2.0 0.00 0.00 0.00 86 1014.9
20260508003537 53 127 1.0 2.0 0.00 0.00 0.00 85 1014.9
20260508002517 53 110 2.0 2.0 0.00 0.00 0.00 85 1014.9
20260508001536 53 107 1.0 2.0 0.00 0.00 0.00 85 1015.0
20260508000516 53 110 2.0 4.0 0.00 0.00 0.00 84 1014.9
20260507235517 53 112 2.0 4.0 0.00 0.00 0.00 84 1014.9
20260507234518 54 112 2.0 2.0 0.00 0.00 0.00 84 1014.9
20260507233516 54 115 2.0 2.0 0.00 0.00 0.00 83 1014.9
20260507232537 54 125 2.0 2.0 0.00 0.00 0.00 83 1014.9
20260507231537 54 126 2.0 3.0 0.00 0.00 0.00 83 1015.0
20260507230540 54 118 2.0 2.0 0.00 0.00 0.00 82 1015.0
20260507225517 54 123 2.0 3.0 0.00 0.00 0.00 82 1015.0
20260507224517 55 110 2.0 3.0 0.00 0.00 0.00 82 1015.1
20260507223516 55 137 2.0 3.0 0.00 0.00 0.00 81 1015.1
20260507222517 55 116 2.0 3.0 0.00 0.00 0.00 81 1015.0
20260507221518 55 138 2.0 6.0 0.00 0.00 0.00 80 1015.0
20260507220517 56 115 2.0 3.0 0.00 0.00 0.00 80 1015.2
20260507215516 56 131 2.0 8.0 0.00 0.00 0.00 80 1015.0
20260507214516 56 126 2.0 4.0 0.00 0.00 0.00 80 1015.0
20260507213538 56 0.0 0.0 0.00 0.00 0.00 78 1015.1
20260507212517 57 133 0.0 1.0 0.00 0.00 0.00 77 1015.0
20260507211517 57 106 0.0 1.0 0.00 0.00 0.00 77 1015.0
20260507210518 57 126 2.0 8.0 0.00 0.00 0.00 77 1014.9
20260507205518 58 0.0 0.0 0.00 0.00 0.00 76 1015.0
20260507204517 58 118 2.0 3.0 0.00 0.00 0.00 75 1014.8
20260507203519 59 127 2.0 8.0 0.00 0.00 0.00 75 1014.7
20260507202518 59 132 0.0 1.0 0.00 0.00 0.00 74 1014.8
20260507201537 59 120 2.0 6.0 0.00 0.00 0.00 73 1014.7
20260507200517 60 145 0.0 1.0 0.00 0.00 0.00 73 1014.7
20260507195517 60 110 2.0 7.0 0.00 0.00 0.00 72 1014.8
20260507194517 61 105 1.0 4.0 0.00 0.00 0.00 72 1014.8
20260507193517 61 127 0.0 2.0 0.00 0.00 0.00 72 1014.9
20260507192517 61 0.0 0.0 0.00 0.00 0.00 71 1014.8
20260507191518 61 128 0.0 2.0 0.00 0.00 0.00 71 1014.6
20260507190517 62 121 2.0 9.0 0.00 0.00 0.00 71 1014.6
20260507185559 62 0.0 0.0 0.00 0.00 0.00 69 1014.6
20260507184516 63 137 0.0 3.0 0.00 0.00 0.00 68 1014.6
20260507183517 64 116 1.0 4.0 0.00 0.00 0.00 67 1014.5
20260507182536 64 0.0 0.0 0.00 0.00 0.00 66 1014.5
20260507181517 66 0.0 0.0 0.00 0.00 0.00 64 1014.4
20260507180519 67 133 1.0 4.0 0.00 0.00 0.00 63 1014.2
20260507175516 67 108 0.0 1.0 0.00 0.00 0.00 62 1014.1
20260507174517 68 128 1.0 4.0 0.00 0.00 0.00 61 1014.1
20260507173516 68 133 0.0 3.0 0.00 0.00 0.00 60 1014.0
20260507172519 69 123 2.0 8.0 0.00 0.00 0.00 59 1013.9
20260507171516 69 129 1.0 6.0 0.00 0.00 0.00 57 1013.8
20260507170517 70 125 2.0 5.0 0.00 0.00 0.00 55 1013.7
20260507165519 71 146 3.0 8.0 0.00 0.00 0.00 52 1013.6
20260507164536 71 155 4.0 12.0 0.00 0.00 0.00 53 1013.7
20260507163520 72 164 2.0 7.0 0.00 0.00 0.00 53 1013.7
20260507162517 72 156 3.0 7.0 0.00 0.00 0.00 51 1013.5
20260507161517 73 151 2.0 8.0 0.00 0.00 0.00 52 1013.5
20260507160519 73 130 4.0 10.0 0.00 0.00 0.00 51 1013.5
20260507155557 74 159 5.0 10.0 0.00 0.00 0.00 50 1013.5
20260507154518 74 138 3.0 7.0 0.00 0.00 0.00 49 1013.5
20260507153517 74 159 5.0 11.0 0.00 0.00 0.00 48 1013.6
20260507152518 75 117 7.0 11.0 0.00 0.00 0.00 47 1013.5
20260507151517 75 148 6.0 13.0 0.00 0.00 0.00 47 1013.6
20260507150517 75 159 7.0 16.0 0.00 0.00 0.00 46 1013.5
20260507145537 75 141 9.0 14.0 0.00 0.00 0.00 46 1013.5
20260507144518 76 138 7.0 13.0 0.00 0.00 0.00 46 1013.6
20260507143517 75 122 6.0 16.0 0.00 0.00 0.00 45 1013.7
20260507142517 75 138 5.0 12.0 0.00 0.00 0.00 44 1013.8
20260507141518 76 131 4.0 10.0 0.00 0.00 0.00 43 1013.8
20260507140517 76 161 5.0 10.0 0.00 0.00 0.00 43 1013.9
20260507135539 76 152 6.0 11.0 0.00 0.00 0.00 42 1013.9
20260507134537 76 143 6.0 12.0 0.00 0.00 0.00 41 1013.9
20260507133518 77 180 6.0 12.0 0.00 0.00 0.00 42 1013.9
20260507132520 77 155 5.0 12.0 0.00 0.00 0.00 41 1013.9
20260507131517 77 153 5.0 11.0 0.00 0.00 0.00 41 1013.9
20260507130558 77 154 5.0 11.0 0.00 0.00 0.00 41 1014.0
20260507125519 76 153 7.0 15.0 0.00 0.00 0.00 40 1014.1
20260507124519 76 151 4.0 9.0 0.00 0.00 0.00 41 1014.3
20260507123517 76 156 7.0 12.0 0.00 0.00 0.00 41 1014.4
20260507122519 76 137 3.0 8.0 0.00 0.00 0.00 41 1014.6
20260507121518 76 158 5.0 14.0 0.00 0.00 0.00 41 1014.6
20260507120518 76 173 7.0 15.0 0.00 0.00 0.00 41 1014.7
20260507115536 77 147 5.0 10.0 0.00 0.00 0.00 40 1014.8
20260507114517 76 154 5.0 12.0 0.00 0.00 0.00 41 1014.8
20260507113519 76 142 3.0 9.0 0.00 0.00 0.00 41 1014.9
20260507112519 75 153 6.0 12.0 0.00 0.00 0.00 40 1015.1
20260507111538 76 152 6.0 11.0 0.00 0.00 0.00 40 1015.1
20260507110557 76 151 5.0 16.0 0.00 0.00 0.00 40 1015.0
20260507105519 75 135 5.0 10.0 0.00 0.00 0.00 39 1015.1
20260507104518 75 153 6.0 11.0 0.00 0.00 0.00 38 1015.1
20260507103518 75 162 8.0 13.0 0.00 0.00 0.00 39 1015.2
20260507102518 75 157 6.0 12.0 0.00 0.00 0.00 39 1015.3
20260507101557 75 149 3.0 7.0 0.00 0.00 0.00 40 1015.3
20260507100518 74 147 6.0 13.0 0.00 0.00 0.00 41 1015.4
20260507095518 74 129 4.0 11.0 0.00 0.00 0.00 41 1015.4
20260507094518 74 154 4.0 10.0 0.00 0.00 0.00 40 1015.4
20260507093518 74 173 7.0 14.0 0.00 0.00 0.00 39 1015.5
20260507092538 73 151 6.0 13.0 0.00 0.00 0.00 40 1015.6
20260507091538 73 136 6.0 16.0 0.00 0.00 0.00 40 1015.6
20260507090519 73 136 4.0 11.0 0.00 0.00 0.00 40 1015.6
20260507085538 73 139 5.0 11.0 0.00 0.00 0.00 40 1015.6